OBJECT E, 61242

Orbit data source: Space-Track

You're viewing an Uncataloged Satellite

Recently launched and/or uncataloged satellites may have evolving metadata. Metadata may include but not limited to: Owner, Maufacturer, Bus, Motor, and Mission.

OBJECT E, 61242 is a satellite owned by Yunyao yuhang (CN) in SSO that was launched on Tue, 24 Sep 2024 UTC via a LIJIAN-1 launch vehicle from the Jiuquan Satellite Launch Center, China (JSC). Unknown objects in Earth's orbit typically refer to objects detected orbiting the Earth but have not yet been identified or cataloged. These objects could be anything from previously untracked satellites, spent rocket stages, debris from satellite collisions, or even natural meteoroids temporarily captured by Earth's gravity.

Loading next visibility...
Identifier
61242, 2024-174E
Orbit
SSO
Last TLE update
6 hours ago
Origin
Flag of CNYYAO (CN / PRC)
Manufacturer
Changguang WJ
Mission
Operational Commercial Weather
Bus & Motor
YY-1, Unknown motor
Mass
~50 kg wet, ~50 kg dry
Launch date (UTC)
2024-09-24 (9 months ago)
Launch vehicle
LIJIAN-1
Launch site
Jiuquan Satellite Launch Center, China (JSC)
Object type
Unknown
Shape & HBR
Box + 1 Pan, 5 m
Radar Cross Section
5.339 m², Medium (>0.1 m² and < 1m²)

Expand to show TLE details & history

TLE from 6 hours ago
0 OBJECT E
1 61242U 24174E   25182.18772683  .00004917  00000-0  21731-3 0  9991
2 61242  97.4514 189.9169 0015714  35.8101 324.4186 15.22072167 42351
Epoch: 2025-07-01T04:30Z
TLE epoch observation values (Epoch: 2025-07-01T04:30:19.598Z)
Latitude
0.00005°
Longitude
-157.15154°
Altitude
493.897 km
Speed
7.623 km/s
True Right ascension
12h 39m 40s
True Declination
0° 00' 00"
Sunlit
Object was in daylight at epoch
Visualization orbit readout
Latitude
-33.23942°
Longitude
18.19235°
Altitude
523.003 km
Speed
7.594 km/s
Apparent Right ascension
04h 11m 13s
Apparent Declination
-65° 26' 30"
Sunlit
Object is in daylight
Visualization observer readout
Local Sidereal Time
21:48:45
Azimuth
148.368° SSE
Elevation
-37.939°
Doppler factor
1
Orbital elements
Apogee altitude
507.359 km
Perigee altitude
485.753 km
Semi-major axis
6,874.693 km
Eccentricity
0.00157
Inclination
97.4514°
RAAN
189.9169°
Arg. of periapsis
35.8101°
True anomaly
Unknown
Mean anomaly
324.4186°
Eccentric anomaly
Unknown
Mean motion
3.8077 °/min
Orbital period
94.55 mins
BSTAR
0.00021731
Loading maneuver chart data...
Loading SW <> Apogee altitude chart data...
Loading historical data...
Loading historical data...
Loading historical data...
Loading historical data...
Loading historical data...
Loading historical data...
Loading historical data...

OBJECT E Visibility forecast

Observer location: undefined°, undefined°

Span
Click to sort rows by Start time (UTC) header in descending order
Start Az.
Max El. time (UTC)
Max El. Az.
Max El.
End time (UTC)
End Az.
6 mins2025-07-01 12:57:21.445Z30.164° NE2025-07-01 13:00:21.445Z90.589° ESE31.451°2025-07-01 13:03:21.445Z163.795° S
5 mins2025-07-02 01:09:21.445Z214.075° SW2025-07-02 01:11:21.445Z266.299° W26.414°2025-07-02 01:14:21.445Z325.095° NNW
|